Grand Rapids, MI

6:02 AM EDT on May 27, 2017 (GMT -0400)
Gerald R. Ford International

Weather History for KGRR - August, 2012

Change the Weather History Date:

Friday, August 3, 2012

  Actual Average Record
Temperature  
Mean Temperature 82 °F 72 °F  
Max Temperature 93 °F 82 °F 100 °F (1964)
Min Temperature 71 °F 62 °F 46 °F (1965)
Degree Days  
Heating Degree Days 0 0  
Month to date heating degree days 0 0  
Since 1 June heating degree days 28 51  
Since 1 July heating degree days 0 6  
Cooling Degree Days 17 7  
Month to date cooling degree days 38 21  
Year to date cooling degree days 803 452  
Since 1 June cooling degree days 695 405  
Growing Degree Days 32 (Base 50)    
Moisture  
Dew Point 69 °F    
Average Humidity 69    
Maximum Humidity 93    
Minimum Humidity 44    
Precipitation  
Precipitation 0.00 in 0.12 in 1.70 in (1916)
Month to date precipitation T 0.35  
Year to date precipitation 18.88 21.48  
Snow  
Snow 0.00 in 0.00 in T in (1993)
Month to date snowfall 0.0 0.0  
Since 1 June snowfall 0.0 0.0  
Since 1 July snowfall 0.0 0.0  
Snow Depth 0.00 in    
Sea Level Pressure  
Sea Level Pressure 29.90 in    
Wind  
Wind Speed 7 mph (East)    
Max Wind Speed 13 mph    
Max Gust Speed 16 mph    
Visibility 10 miles    
Events      
T = Trace of Precipitation, MM = Missing Value Source: NWS Daily Summary

Daily Weather History Graph

Daily Weather History Graph

Search for Another Location

Airport or City:

Trip Planner

Search our weather history database for the weather conditions in past years. The results will help you decide how hot, cold, wet, or windy it might be!

Date:

Astronomy

Aug. 03, 2012 Rise Set
Actual Time 6:35 AM EDT 8:59 PM EDT
Civil Twilight 6:03 AM EDT 9:31 PM EDT
Nautical Twilight 5:24 AM EDT 10:11 PM EDT
Astronomical Twilight 4:40 AM EDT 10:55 PM EDT
Moon 9:32 PM EDT (8/3) 8:22 AM EDT (8/3)
Length of Visible Light 15h 27m
Length of Day
14h 24m
Full, 97% of the Moon is Illuminated
Aug 3
Full
Aug 9
Last Quarter
Aug 17
New
Aug 24
First Quarter
Aug 31
Full

Hourly Weather History & Observations

Time (EDT) Temp. Heat Index Dew Point Humidity Pressure Visibility Wind Dir Wind Speed Gust Speed Precip Events Conditions
12:53 AM 75.2 °F - 71.6 °F 89% 29.90 in 10.0 mi Calm Calm - N/A   Clear
1:53 AM 75.0 °F - 71.1 °F 87% 29.88 in 9.0 mi Calm Calm - N/A   Clear
2:53 AM 73.9 °F - 71.1 °F 91% 29.89 in 10.0 mi SSE 3.5 mph - N/A   Clear
3:53 AM 73.9 °F - 70.0 °F 87% 29.89 in 10.0 mi East 3.5 mph - N/A   Clear
4:53 AM 73.0 °F - 69.1 °F 87% 29.89 in 10.0 mi Calm Calm - N/A   Clear
5:53 AM 72.0 °F - 69.1 °F 91% 29.89 in 10.0 mi ENE 6.9 mph - N/A   Scattered Clouds
6:53 AM 71.1 °F - 68.0 °F 90% 29.91 in 10.0 mi ENE 5.8 mph - N/A   Scattered Clouds
7:53 AM 73.0 °F - 68.0 °F 84% 29.91 in 10.0 mi East 5.8 mph - N/A   Partly Cloudy
8:53 AM 77.0 °F - 68.0 °F 74% 29.92 in 10.0 mi East 8.1 mph - N/A   Partly Cloudy
9:53 AM 80.1 °F 82.7 °F 68.0 °F 67% 29.92 in 10.0 mi East 8.1 mph - N/A   Partly Cloudy
10:53 AM 82.4 °F 86.3 °F 69.8 °F 66% 29.94 in 10.0 mi East 6.9 mph - N/A   Clear
11:53 AM 84.9 °F 88.8 °F 69.1 °F 59% 29.93 in 10.0 mi East 5.8 mph - N/A   Clear
12:53 PM 88.0 °F 91.4 °F 68.0 °F 51% 29.92 in 10.0 mi East 6.9 mph - N/A   Clear
1:53 PM 90.0 °F 93.6 °F 68.0 °F 48% 29.91 in 10.0 mi East 9.2 mph - N/A   Scattered Clouds
2:53 PM 91.9 °F 95.9 °F 68.0 °F 45% 29.91 in 10.0 mi Variable 4.6 mph - N/A   Scattered Clouds
3:53 PM 91.0 °F 95.2 °F 68.0 °F 47% 29.90 in 10.0 mi Variable 4.6 mph - N/A   Scattered Clouds
4:53 PM 93.0 °F 97.4 °F 68.0 °F 44% 29.89 in 10.0 mi East 9.2 mph - N/A   Partly Cloudy
5:53 PM 93.0 °F 97.4 °F 68.0 °F 44% 29.89 in 10.0 mi East 6.9 mph - N/A   Partly Cloudy
6:53 PM 91.0 °F 95.2 °F 68.0 °F 47% 29.89 in 10.0 mi ENE 9.2 mph - N/A   Scattered Clouds
7:53 PM 89.1 °F 93.7 °F 69.1 °F 52% 29.90 in 10.0 mi East 8.1 mph - N/A   Mostly Cloudy
8:53 PM 84.0 °F 88.4 °F 70.0 °F 63% 29.90 in 10.0 mi East 8.1 mph - N/A   Partly Cloudy
9:53 PM 82.0 °F 87.4 °F 73.0 °F 74% 29.92 in 10.0 mi East 8.1 mph - N/A   Partly Cloudy
10:53 PM 80.1 °F 83.8 °F 72.0 °F 76% 29.92 in 10.0 mi East 11.5 mph - N/A   Clear
11:53 PM 77.0 °F - 72.0 °F 84% 29.92 in 10.0 mi East 8.1 mph - N/A   Clear